Total_Precipitation_Accumulation
0.11 0.25 0.59 0.95 1.54 2.22 1.95 1.32 0.77 0.60 0.54 0.64 0.74 0.71 0.79 0.90 1.27 2.00 2.04 1.81 1.55 1.73 2.04 2.44 2.58 2.22 1.96 1.95 1.90 1.94 2.04 2.01 1.96 2.05 2.12 2.21 2.45 2.69 2.88 2.88 2.68 2.51 2.39 2.26 2.30 2.30 2.18 2.14 1.99
0.21 0.45 0.76 1.12 1.87 2.17 1.71 1.48 0.73 0.58 0.57 0.60 0.64 0.69 0.74 0.67 0.64 1.10 1.79 1.69 1.42 1.52 1.68 2.01 2.36 2.10 1.81 1.86 1.89 1.99 2.01 1.93 1.89 1.99 2.12 2.34 2.66 2.85 2.83 2.64 2.48 2.39 2.23 2.12 2.12 2.16 2.02 1.82 1.71
0.30 0.56 0.84 1.14 1.30 1.33 1.10 0.96 0.61 0.57 0.54 0.64 0.67 0.65 0.66 0.89 0.85 1.21 1.50 1.37 1.42 1.50 1.65 2.08 2.31 2.13 1.97 1.95 2.02 2.01 1.93 1.89 1.95 2.13 2.36 2.69 2.78 2.78 2.61 2.40 2.26 2.14 1.97 1.95 1.93 2.03 1.97 1.78 1.69
0.33 0.58 0.77 0.79 0.68 0.64 0.60 0.53 0.40 0.48 0.45 0.55 0.65 0.64 0.78 0.91 0.85 1.17 1.35 1.40 1.42 1.54 1.71 1.96 2.18 2.04 1.97 1.86 1.89 1.98 2.01 2.00 2.09 2.16 2.32 2.55 2.55 2.53 2.36 2.13 1.98 1.91 1.77 1.72 1.80 2.00 2.04 1.82 1.75
0.38 0.59 0.73 0.61 0.48 0.50 0.49 0.42 0.36 0.44 0.43 0.57 0.70 0.87 1.12 1.11 0.94 1.22 1.39 1.40 1.37 1.43 1.63 1.75 2.06 2.13 2.06 1.97 2.00 2.05 2.04 2.05 2.03 2.02 2.14 2.19 2.25 2.30 2.13 1.87 1.82 1.78 1.59 1.56 1.87 2.09 2.02 1.76 1.69
0.40 0.59 0.51 0.39 0.40 0.43 0.42 0.33 0.31 0.39 0.48 0.57 0.76 1.04 1.46 1.56 1.32 1.28 1.28 1.19 1.27 1.40 1.54 1.66 2.00 2.18 2.20 2.09 2.07 2.01 2.05 2.12 1.99 1.93 2.04 1.99 1.91 2.02 1.93 1.72 1.68 1.64 1.57 1.69 1.96 2.07 1.90 1.69 1.68
0.48 0.51 0.33 0.24 0.31 0.38 0.37 0.27 0.28 0.30 0.45 0.68 0.86 1.14 1.64 2.04 1.69 1.36 1.33 1.37 1.47 1.45 1.53 1.80 2.04 2.04 2.03 2.21 2.11 2.05 2.09 2.17 2.12 1.99 2.02 1.93 1.76 1.71 1.65 1.69 1.73 1.62 1.71 1.92 2.10 2.05 1.85 1.67 1.73
0.26 0.25 0.24 0.21 0.20 0.32 0.34 0.26 0.25 0.31 0.41 0.61 0.79 1.07 1.69 1.76 1.49 1.41 1.64 1.74 1.90 1.77 1.66 1.79 1.93 1.81 1.73 1.80 1.93 1.94 1.90 1.87 1.94 1.95 1.92 1.98 1.94 1.76 1.72 1.70 1.75 1.81 1.89 2.17 2.26 2.14 1.98 1.74 1.75
0.15 0.16 0.17 0.16 0.15 0.23 0.25 0.24 0.26 0.29 0.37 0.60 0.77 1.02 1.36 1.32 1.26 1.31 1.90 2.08 2.14 1.99 1.89 1.77 1.66 1.60 1.58 1.45 1.52 1.73 1.84 1.82 1.88 1.92 1.90 1.99 2.09 1.86 1.91 1.87 2.12 2.20 2.17 2.40 2.57 2.55 2.35 2.06 1.93
0.10 0.10 0.09 0.08 0.10 0.15 0.21 0.27 0.26 0.31 0.53 0.92 1.22 1.26 1.23 1.23 1.36 1.55 1.98 1.99 2.16 2.21 1.98 1.89 1.77 1.58 1.37 1.23 1.42 1.78 1.64 1.72 1.86 2.02 2.01 2.17 2.42 2.48 1.94 2.17 2.61 2.77 2.80 2.88 3.01 3.03 2.58 2.14 2.03
0.06 0.06 0.06 0.08 0.11 0.15 0.18 0.26 0.29 0.36 0.78 1.25 1.70 1.53 1.34 1.45 1.58 1.85 2.24 2.46 2.44 2.54 2.29 2.17 1.99 1.71 1.46 1.53 1.37 1.55 1.76 1.94 1.99 2.02 2.07 2.23 2.15 2.07 2.03 2.34 2.77 2.94 2.90 2.86 3.05 3.02 2.57 2.59 2.81
0.05 0.06 0.09 0.12 0.14 0.17 0.23 0.28 0.34 0.46 0.75 0.88 1.11 1.35 1.48 1.66 1.90 2.17 2.33 2.56 2.58 2.67 2.54 2.57 2.22 2.06 2.07 1.81 1.50 1.41 1.45 1.61 1.86 2.16 2.14 2.25 2.53 2.50 2.44 2.64 2.72 2.77 2.95 3.35 3.13 3.26 3.14 3.13 2.99
0.05 0.08 0.11 0.12 0.13 0.16 0.22 0.24 0.34 0.49 0.59 0.65 0.95 1.32 1.67 1.80 2.08 2.39 2.49 2.78 2.66 2.63 2.66 2.73 2.56 2.39 2.42 2.16 1.92 1.67 1.79 1.78 1.89 2.11 2.27 2.23 2.58 2.87 2.91 2.91 2.91 2.78 2.82 3.04 3.17 3.10 3.43 3.60 3.19
0.04 0.06 0.08 0.09 0.12 0.15 0.20 0.25 0.34 0.50 0.65 0.82 1.04 1.33 1.66 1.97 2.19 2.35 2.77 2.93 2.97 2.87 2.94 2.76 2.74 2.73 2.69 2.58 2.51 2.43 2.16 2.26 2.21 2.24 2.26 2.31 2.65 3.09 3.29 3.22 3.12 2.96 2.90 2.99 3.10 3.23 3.67 3.62 3.46
0.05 0.09 0.11 0.12 0.14 0.16 0.22 0.41 0.55 0.67 0.73 0.88 1.09 1.25 1.61 2.13 2.38 2.40 2.75 2.90 2.83 3.22 3.27 3.27 3.23 3.37 3.32 3.14 3.00 2.76 2.57 2.45 2.48 2.59 2.65 2.56 2.69 3.03 3.06 2.93 2.83 2.83 2.91 3.08 3.10 3.28 3.48 3.18 3.20
0.08 0.17 0.24 0.22 0.20 0.19 0.28 0.65 0.73 0.78 0.78 0.98 1.17 1.34 1.65 1.97 2.30 2.44 2.73 2.93 3.01 3.40 3.59 3.78 3.73 3.76 3.60 3.60 3.56 3.27 3.03 2.86 2.72 2.68 2.74 2.59 2.60 2.75 3.03 2.82 2.70 3.01 3.00 3.11 3.40 3.53 3.45 3.41 3.43
0.13 0.17 0.21 0.22 0.18 0.18 0.24 0.54 0.68 0.82 1.04 1.20 1.37 1.53 1.59 1.87 2.19 2.55 2.82 3.16 3.44 3.79 4.08 4.30 4.30 4.16 3.90 3.94 3.90 3.72 3.58 3.29 2.93 2.76 2.68 2.57 2.57 2.73 3.05 3.07 3.16 3.20 3.30 3.32 3.14 3.56 3.62 3.51 3.53
0.14 0.15 0.18 0.20 0.18 0.19 0.32 0.57 0.67 0.85 1.14 1.19 1.45 1.62 1.70 1.77 2.21 2.67 2.88 3.29 3.76 4.27 4.68 4.56 4.51 4.71 4.56 4.42 4.30 4.01 3.55 3.12 2.98 2.94 2.75 2.61 2.69 2.83 3.27 3.14 3.12 3.18 3.37 3.46 3.42 3.57 3.59 3.31 3.27
0.08 0.12 0.17 0.20 0.17 0.22 0.37 0.63 0.88 1.01 1.33 1.29 1.31 1.49 1.62 1.74 2.04 2.45 2.76 3.31 3.91 4.33 4.74 4.91 4.96 4.86 4.68 4.34 4.03 3.80 3.56 3.34 3.08 2.90 2.79 2.72 2.63 2.85 3.34 3.14 3.40 3.32 3.33 3.37 3.42 3.55 3.45 3.15 3.34
0.10 0.13 0.16 0.21 0.21 0.29 0.48 0.70 0.99 1.02 1.11 1.18 1.10 1.18 1.38 1.72 1.99 2.50 2.80 3.02 3.46 3.96 4.42 4.75 4.94 4.82 4.43 4.07 3.91 3.81 3.77 3.37 3.08 3.06 3.20 3.02 3.02 3.07 3.13 3.36 3.30 3.33 3.45 3.41 3.40 3.56 3.34 2.97 3.26
0.12 0.14 0.16 0.17 0.22 0.41 0.54 0.98 1.21 1.09 1.04 1.08 1.09 1.19 1.38 1.81 2.27 2.57 2.76 2.89 3.14 3.54 3.84 3.94 4.13 4.09 3.93 3.97 4.00 3.96 3.98 3.57 3.50 3.51 3.51 3.29 3.29 3.31 3.32 3.30 3.21 3.21 3.02 3.11 3.20 3.23 3.25 3.18 3.14
0.15 0.13 0.11 0.13 0.24 0.51 0.59 1.22 1.58 1.31 1.20 1.32 1.37 1.36 1.62 1.90 1.96 2.17 2.45 2.72 2.89 3.13 3.45 3.66 3.71 3.67 3.59 3.71 3.78 3.68 3.51 3.39 3.55 3.83 3.76 3.49 3.28 3.15 2.97 2.92 3.08 3.09 2.88 2.93 2.59 2.76 2.96 2.96 2.82
0.12 0.12 0.13 0.17 0.27 0.47 0.60 0.97 1.49 1.45 1.54 1.54 1.47 1.54 1.81 1.79 1.70 1.81 2.02 2.34 2.47 2.80 3.07 3.27 3.52 3.62 3.56 3.64 3.62 3.65 3.49 3.48 3.55 3.56 3.62 3.41 3.23 2.92 2.58 2.61 2.81 2.76 2.66 2.57 2.48 2.69 2.53 2.46 2.53
0.10 0.13 0.23 0.32 0.47 0.82 0.64 0.75 1.29 1.44 1.34 1.33 1.38 1.36 1.53 1.50 1.48 1.71 1.88 2.17 2.35 2.47 2.59 2.69 2.90 3.18 3.36 3.41 3.37 3.43 3.37 3.35 3.30 3.27 3.16 2.96 2.81 2.62 2.33 2.22 2.39 2.49 2.52 2.48 2.46 2.55 2.43 2.44 2.57
0.11 0.21 0.63 1.02 1.20 1.21 0.64 0.73 1.23 1.17 1.10 1.09 1.21 1.27 1.28 1.22 1.21 1.45 1.61 1.78 1.99 2.11 2.21 2.34 2.60 2.96 3.06 3.02 2.98 3.09 3.15 3.16 3.09 3.08 2.92 2.70 2.48 2.25 2.20 2.20 2.30 2.32 2.38 2.25 2.31 2.36 2.40 2.57 2.63
0.13 0.19 0.55 0.89 0.99 1.00 0.82 1.18 1.60 1.16 1.02 1.04 1.10 1.12 1.07 1.01 0.97 1.12 1.39 1.70 1.88 1.87 1.94 2.08 2.37 2.63 2.67 2.60 2.74 3.00 3.07 3.11 3.04 3.05 2.73 2.47 2.26 2.21 2.31 2.27 2.12 2.07 2.17 2.05 2.32 2.25 2.30 2.52 2.59
0.14 0.16 0.24 0.42 0.52 0.79 1.04 1.31 1.32 0.85 0.80 0.87 0.94 0.97 1.07 1.05 0.98 1.06 1.16 1.38 1.52 1.58 1.64 1.79 2.20 2.47 2.56 2.64 2.76 2.88 2.98 2.96 2.92 2.81 2.52 2.27 2.29 2.25 2.38 2.32 2.21 2.10 2.18 2.29 2.56 2.50 2.44 2.65 2.64
0.15 0.17 0.23 0.34 0.56 0.86 1.07 1.32 1.44 1.03 0.84 0.64 0.62 0.71 0.75 0.80 0.83 0.91 0.96 1.08 1.18 1.36 1.62 1.79 1.93 2.23 2.34 2.43 2.58 2.61 2.84 2.76 2.60 2.55 2.32 2.09 2.01 2.08 2.26 2.39 2.31 2.22 2.24 2.41 2.61 2.61 2.74 2.91 2.93
0.17 0.17 0.19 0.24 0.36 0.62 1.11 1.31 1.00 0.83 0.69 0.66 0.66 0.76 0.76 0.76 0.75 0.80 0.93 1.07 1.16 1.29 1.50 1.61 1.65 1.83 1.98 2.10 2.31 2.32 2.32 2.39 2.46 2.30 2.04 1.95 1.96 2.03 2.10 2.29 2.35 2.30 2.33 2.44 2.51 2.46 2.77 2.91 2.94
0.17 0.15 0.18 0.24 0.25 0.37 0.67 0.93 0.70 0.73 0.72 0.65 0.72 0.83 0.90 0.88 0.81 0.86 1.03 1.16 1.23 1.36 1.39 1.42 1.50 1.70 1.87 2.03 2.22 2.28 2.26 2.30 2.33 2.19 2.01 1.98 2.02 2.08 2.08 2.19 2.23 2.13 2.15 2.35 2.38 2.42 2.70 2.86 2.75